Wind_Speed
29 29 28 26 25 24 24 24 22 21 21 22 21 19 17 17 17 18 18 19 19 19 18 17 15 13 11 10 8 7 6 5 3 3 3 4 6 6 7 7 8 9
31 30 30 29 27 25 25 24 24 22 21 22 21 20 20 20 20 21 20 21 21 20 20 19 17 15 13 11 9 8 7 6 4 3 1 2 4 4 5 6 7 8
32 32 32 31 29 26 25 24 24 24 22 22 23 22 22 22 22 23 22 22 22 22 21 20 18 17 15 13 11 9 8 7 6 5 2 2 3 4 4 6 7 8
34 33 32 32 30 28 26 26 25 25 23 23 23 23 24 24 24 24 24 24 24 23 22 20 19 18 16 15 13 11 10 9 8 7 4 5 6 6 7 7 8 8
34 33 32 32 31 30 29 27 26 25 24 23 23 24 25 26 26 25 25 25 25 24 22 21 20 19 17 16 14 13 12 11 10 8 7 8 9 9 9 10 10 9
32 32 32 31 32 32 30 28 26 25 25 24 24 25 26 27 26 26 25 25 25 24 23 22 20 19 18 17 16 14 13 13 12 10 10 11 11 11 11 12 12 12
29 31 31 31 31 32 31 29 27 26 26 25 26 26 27 28 28 27 26 26 26 25 24 23 22 20 19 18 17 16 15 14 13 12 12 13 13 13 13 13 13 13
27 29 30 30 31 31 32 30 28 27 27 26 27 28 28 28 28 27 27 26 26 25 25 24 23 21 20 19 17 16 16 15 15 15 14 14 13 14 14 14 15 14
27 27 29 30 30 31 31 30 28 27 27 28 28 29 29 29 29 28 28 27 27 26 26 25 24 22 21 19 18 17 16 15 16 17 16 15 15 15 15 16 16 15
27 27 28 29 29 30 30 30 29 28 28 29 29 30 30 30 30 30 29 29 28 28 27 26 24 23 22 20 19 17 17 17 18 18 17 16 16 16 16 17 17 16
27 27 27 28 28 29 29 29 29 29 29 29 30 31 31 31 31 32 31 31 29 28 27 26 24 23 22 21 20 19 19 19 19 19 18 18 18 18 17 18 18 17
28 28 27 27 27 28 29 30 30 29 29 30 31 32 32 33 33 33 33 32 30 29 27 26 25 24 23 22 21 21 21 21 20 19 19 18 18 18 18 18 19 19
30 29 29 27 27 27 28 29 30 29 30 31 32 33 33 33 34 34 33 33 31 30 29 27 26 25 25 24 23 22 22 21 20 20 19 19 19 19 19 19 20 20
31 31 30 29 28 27 27 28 29 29 30 31 32 34 34 34 35 34 34 33 33 32 30 29 28 28 27 26 24 23 22 22 21 21 20 20 20 20 21 21 21 22
32 32 32 32 31 29 27 27 27 28 30 31 33 34 35 35 35 35 35 34 34 34 33 32 31 30 28 27 25 23 23 22 22 22 22 21 21 22 22 23 23 24
32 34 34 34 33 32 29 27 27 27 29 30 33 35 36 36 36 36 36 35 35 35 35 34 33 31 29 28 26 25 24 24 24 24 23 23 23 24 25 25 26 25
32 35 36 36 36 34 32 30 28 27 28 29 32 35 37 37 37 37 37 36 36 36 37 36 35 32 30 29 28 27 26 25 25 25 25 25 25 26 27 27 27 27
31 35 37 38 38 37 35 33 30 29 28 29 31 34 37 38 38 37 37 37 37 37 38 38 36 33 31 30 30 29 27 27 27 27 27 27 27 28 28 28 28 27
30 33 37 39 39 38 37 36 34 32 30 29 30 32 35 38 39 38 38 38 38 38 39 39 37 34 33 32 31 30 29 28 29 29 29 29 29 29 29 28 27 25
29 32 35 38 40 39 39 38 37 36 33 31 31 32 34 37 39 39 39 38 38 39 39 39 37 35 33 32 32 31 30 30 31 31 31 31 30 28 28 27 26 24
29 31 34 37 39 39 40 41 40 39 37 34 33 33 34 35 37 39 39 39 39 39 40 40 38 36 34 34 33 32 31 32 33 34 34 33 30 28 27 26 25 25
30 31 33 36 38 39 40 42 42 42 41 38 36 35 35 35 36 38 39 40 40 40 41 40 39 37 35 35 34 34 33 34 35 36 36 34 30 27 26 26 26 26
31 32 33 34 36 38 40 41 42 43 43 42 39 37 36 36 37 38 39 40 41 41 42 41 40 38 37 36 35 35 36 36 37 38 38 36 31 28 27 27 27 26
31 32 33 33 35 38 40 40 41 43 44 44 42 40 38 38 37 38 39 41 42 42 42 42 41 39 38 37 37 37 38 38 39 40 40 38 34 29 28 28 27 26
26 27 28 30 32 35 37 38 39 40 42 44 44 42 40 39 39 39 41 42 43 43 43 43 42 41 40 39 39 39 40 41 41 41 41 39 36 32 29 28 27 26
23 24 24 25 27 28 30 33 35 37 39 42 44 44 44 42 41 41 42 43 43 43 44 44 44 43 43 41 40 40 41 42 42 42 41 39 37 34 31 28 27 26
Wind_Direction
234 235 237 239 240 241 243 243 239 230 220 216 215 212 209 208 212 212 206 201 198 195 197 199 199 199 198 193 187 183 179 174 153 106 80 67 59 48 39 34 30 26
234 235 237 239 240 241 244 245 242 235 223 215 212 209 208 208 210 210 205 202 201 199 200 201 200 203 205 202 196 191 185 183 188 184 146 53 42 33 21 18 17 14
235 235 236 239 242 243 245 246 244 239 228 217 211 209 209 209 210 210 206 204 203 203 203 202 201 204 209 210 204 197 195 198 210 219 236 310 339 339 339 348 353 354
237 236 236 238 241 243 244 244 242 239 231 221 214 210 210 210 211 210 207 206 205 206 206 204 203 206 210 212 210 207 209 215 225 239 260 281 292 303 314 326 335 340
239 239 238 237 239 242 243 241 239 236 230 223 217 214 213 212 212 210 207 207 208 207 207 206 206 208 211 214 215 217 221 229 238 252 264 269 279 293 303 314 323 328
239 239 238 237 237 240 242 241 238 234 229 223 219 217 215 214 214 212 209 208 209 208 207 208 209 209 211 215 219 224 230 238 245 253 260 266 277 289 298 308 314 318
239 239 238 236 235 237 240 240 236 233 228 222 220 219 218 216 216 213 210 209 209 208 207 208 210 210 212 217 222 227 234 241 248 253 260 268 277 286 293 301 306 310
239 240 239 237 236 236 238 238 235 231 228 223 220 219 219 218 217 215 212 210 208 207 207 208 211 213 215 218 222 228 234 241 249 255 262 269 275 282 288 293 299 305
237 238 238 237 236 234 235 236 234 231 229 224 220 219 220 219 219 217 213 210 207 206 207 209 212 215 218 221 224 228 233 239 247 254 262 268 273 278 283 287 294 300
238 239 238 237 235 233 233 234 233 232 229 225 220 219 220 220 219 218 215 212 208 206 207 209 212 216 219 224 227 228 230 237 246 255 261 267 272 276 280 285 292 297
239 241 240 239 237 234 232 232 232 231 229 225 221 219 220 220 220 219 216 214 210 208 209 211 214 218 221 226 229 229 232 239 248 255 260 264 269 273 278 284 289 292
237 242 243 241 239 236 233 231 231 230 228 225 221 219 220 220 221 220 218 216 213 211 213 215 218 221 225 228 229 231 235 243 250 255 259 263 267 272 278 282 286 287
235 240 244 244 243 240 236 233 232 229 227 225 222 220 219 220 222 221 220 218 215 214 216 218 221 224 227 229 230 234 240 246 252 255 259 264 268 273 276 279 281 280
234 238 243 246 246 245 241 238 235 231 227 225 222 221 220 221 222 222 221 219 217 217 219 220 223 225 227 229 231 236 243 248 252 256 259 264 268 272 274 275 275 274
233 236 239 243 245 245 243 241 239 235 230 226 223 221 220 221 223 222 222 220 218 219 220 221 224 225 226 228 232 238 243 248 252 255 259 262 266 268 269 268 268 268
235 236 237 239 243 245 244 243 241 238 234 228 225 222 220 221 222 223 222 221 220 220 221 222 224 224 224 227 232 237 241 246 250 254 258 260 262 262 262 263 263 264
238 237 236 237 240 242 244 243 242 240 238 233 228 224 221 220 222 223 223 222 221 220 221 223 224 223 224 228 232 235 239 245 249 252 255 256 256 256 258 260 262 264
241 240 237 237 237 238 241 242 242 241 238 235 231 227 223 221 222 224 224 223 222 221 222 225 224 222 224 228 232 235 239 244 248 250 252 252 251 253 257 260 264 269
244 244 241 238 237 236 237 239 241 241 238 236 234 231 227 224 224 225 224 224 223 222 223 226 225 223 225 229 232 235 239 243 247 249 250 249 250 253 258 264 269 275
246 246 244 241 239 237 235 236 238 240 239 236 234 232 230 228 226 225 225 226 225 225 226 227 225 224 226 230 233 237 241 244 247 249 248 247 249 255 263 269 274 278
246 246 245 243 241 239 237 235 236 238 239 237 234 232 232 231 228 227 227 228 227 227 228 228 227 226 227 230 233 238 242 244 246 248 247 247 250 257 265 270 274 278
247 246 245 244 242 241 239 237 235 236 237 237 235 233 232 231 230 228 228 229 229 229 230 230 229 228 229 230 233 238 242 244 246 248 248 247 249 256 264 268 273 277
246 246 246 245 243 241 240 239 237 235 236 237 236 234 232 231 231 230 229 230 230 230 231 232 231 230 231 232 233 238 242 243 245 248 249 248 249 254 261 267 272 277
246 246 246 246 246 245 243 243 241 238 236 236 237 236 234 233 232 232 232 232 232 232 233 233 232 232 232 233 233 237 241 243 245 248 249 249 249 253 260 266 270 273
250 249 247 247 247 247 246 246 246 242 239 237 237 237 236 234 232 232 233 233 233 233 233 233 234 233 233 233 233 236 240 243 245 248 250 250 249 253 259 264 267 269
256 256 254 252 251 251 250 248 247 245 241 239 238 237 236 235 233 232 233 234 234 234 234 234 234 235 234 233 233 235 239 243 245 248 250 251 251 252 257 261 264 266
Height
3180 3181 3182 3184 3185 3187 3188 3189 3190 3191 3192 3193 3194 3196 3198 3200 3201 3202 3204 3205 3207 3209 3210 3211 3212 3213 3214 3215 3216 3216 3216 3217 3217 3218 3218 3218 3218 3217 3217 3217 3216 3215
3177 3179 3180 3181 3183 3184 3186 3187 3188 3189 3190 3191 3192 3194 3195 3197 3199 3200 3202 3203 3205 3207 3209 3210 3211 3212 3213 3214 3215 3215 3215 3216 3217 3217 3217 3217 3217 3217 3216 3216 3215 3215
3174 3176 3177 3179 3180 3182 3184 3185 3186 3187 3188 3189 3190 3191 3193 3195 3196 3198 3200 3202 3204 3205 3207 3208 3210 3211 3212 3213 3214 3214 3214 3215 3215 3216 3216 3216 3216 3216 3216 3215 3215 3214
3171 3173 3175 3176 3178 3180 3181 3182 3184 3185 3186 3187 3188 3190 3191 3192 3194 3195 3198 3200 3202 3204 3205 3207 3208 3209 3211 3212 3212 3213 3213 3214 3214 3214 3214 3214 3215 3214 3214 3214 3214 3214
3169 3170 3172 3174 3176 3177 3178 3179 3181 3183 3184 3186 3187 3188 3189 3190 3192 3193 3196 3198 3200 3202 3204 3205 3206 3208 3209 3210 3211 3211 3212 3212 3212 3213 3213 3213 3213 3213 3213 3213 3213 3213
3165 3167 3169 3171 3173 3174 3175 3177 3179 3180 3182 3184 3185 3187 3188 3189 3190 3192 3194 3196 3199 3200 3202 3203 3205 3206 3207 3208 3209 3209 3210 3210 3210 3211 3211 3211 3211 3211 3211 3211 3211 3211
3162 3164 3166 3168 3170 3171 3172 3174 3176 3178 3180 3182 3183 3185 3186 3187 3188 3190 3192 3194 3196 3198 3200 3201 3203 3204 3205 3206 3207 3207 3208 3208 3208 3209 3209 3209 3209 3209 3209 3209 3209 3209
3160 3161 3163 3165 3166 3168 3169 3171 3174 3176 3178 3179 3180 3182 3184 3186 3187 3189 3190 3192 3194 3196 3198 3199 3200 3202 3203 3204 3204 3205 3205 3206 3206 3207 3207 3207 3207 3207 3207 3207 3207 3207
3158 3159 3160 3161 3163 3165 3166 3169 3171 3173 3175 3177 3178 3180 3182 3184 3186 3187 3188 3190 3192 3194 3195 3197 3198 3199 3200 3201 3202 3203 3203 3204 3204 3204 3204 3204 3205 3205 3205 3205 3205 3205
3155 3156 3157 3158 3160 3161 3163 3166 3168 3171 3173 3174 3176 3178 3180 3182 3184 3185 3186 3188 3189 3191 3193 3194 3195 3197 3198 3199 3199 3200 3201 3201 3201 3202 3202 3202 3202 3202 3202 3202 3202 3202
3152 3154 3154 3155 3157 3159 3161 3163 3165 3168 3170 3171 3173 3175 3177 3179 3181 3183 3184 3185 3187 3189 3190 3191 3193 3194 3195 3196 3197 3198 3198 3198 3199 3199 3199 3200 3200 3200 3200 3200 3200 3200
3150 3151 3152 3153 3154 3156 3158 3160 3162 3164 3166 3168 3170 3172 3174 3176 3178 3180 3182 3183 3185 3187 3188 3189 3190 3191 3192 3193 3194 3195 3196 3196 3196 3196 3197 3197 3197 3197 3197 3197 3197 3197
3147 3148 3149 3151 3152 3154 3156 3157 3159 3161 3163 3165 3167 3169 3171 3173 3175 3177 3179 3181 3183 3184 3185 3186 3187 3188 3189 3190 3191 3192 3193 3193 3193 3194 3194 3194 3194 3194 3194 3194 3193 3193
3145 3146 3147 3149 3150 3152 3154 3155 3156 3158 3160 3162 3164 3166 3168 3170 3172 3174 3176 3178 3180 3181 3182 3183 3183 3184 3185 3186 3188 3189 3190 3190 3191 3191 3191 3191 3191 3191 3190 3190 3190 3189
3143 3144 3145 3146 3148 3149 3151 3152 3154 3155 3157 3159 3161 3162 3165 3167 3169 3171 3172 3174 3176 3177 3178 3179 3179 3181 3182 3184 3185 3186 3187 3187 3187 3187 3188 3188 3187 3187 3187 3186 3186 3186
3140 3141 3142 3143 3144 3146 3148 3149 3151 3152 3154 3155 3157 3159 3161 3163 3165 3167 3168 3170 3172 3173 3174 3175 3176 3177 3179 3181 3182 3183 3184 3184 3184 3184 3184 3184 3184 3183 3183 3182 3182 3182
3136 3137 3139 3140 3141 3143 3144 3146 3148 3149 3151 3152 3153 3155 3157 3159 3161 3162 3164 3166 3168 3169 3170 3171 3172 3174 3176 3178 3179 3180 3180 3181 3181 3181 3180 3180 3180 3179 3179 3178 3178 3178
3132 3134 3135 3136 3138 3139 3141 3142 3144 3146 3147 3148 3149 3151 3153 3155 3157 3158 3160 3162 3163 3165 3166 3167 3169 3171 3173 3174 3175 3176 3177 3177 3177 3177 3176 3176 3175 3175 3175 3174 3174 3174
3128 3130 3131 3133 3134 3136 3137 3139 3140 3141 3143 3144 3146 3147 3149 3150 3152 3154 3156 3158 3159 3161 3162 3163 3165 3168 3169 3170 3172 3173 3173 3173 3173 3173 3172 3172 3171 3171 3170 3170 3170 3170
3124 3126 3127 3129 3130 3132 3133 3134 3135 3137 3139 3140 3142 3143 3144 3146 3148 3150 3152 3154 3155 3157 3158 3159 3162 3164 3165 3166 3168 3169 3169 3169 3169 3168 3168 3167 3167 3167 3167 3167 3167 3167
3120 3121 3123 3125 3126 3128 3129 3130 3131 3133 3134 3136 3137 3138 3140 3142 3144 3146 3148 3150 3151 3153 3154 3155 3158 3159 3161 3162 3163 3165 3165 3165 3165 3164 3163 3163 3163 3163 3163 3163 3163 3163
3115 3117 3119 3120 3122 3123 3124 3125 3127 3128 3130 3131 3133 3134 3136 3138 3140 3142 3143 3145 3147 3149 3150 3151 3153 3155 3156 3158 3159 3161 3161 3161 3160 3159 3159 3159 3160 3160 3160 3159 3159 3159
3111 3113 3114 3116 3117 3118 3119 3121 3122 3124 3125 3127 3128 3130 3131 3133 3135 3137 3139 3141 3143 3144 3145 3147 3149 3150 3152 3153 3155 3156 3156 3156 3156 3155 3154 3155 3156 3157 3156 3155 3155 3155
3107 3109 3111 3112 3113 3114 3115 3117 3118 3120 3122 3123 3124 3125 3127 3129 3131 3133 3135 3137 3138 3139 3141 3143 3145 3146 3147 3149 3150 3151 3152 3152 3151 3150 3150 3151 3153 3153 3152 3152 3152 3152
3104 3105 3107 3109 3110 3111 3112 3113 3115 3116 3118 3119 3120 3122 3123 3125 3127 3128 3130 3131 3133 3135 3137 3138 3140 3141 3143 3144 3146 3147 3147 3147 3146 3146 3146 3147 3149 3149 3149 3148 3148 3148
3101 3102 3104 3105 3106 3107 3109 3110 3111 3112 3113 3115 3116 3117 3119 3120 3121 3123 3124 3126 3128 3130 3132 3133 3134 3136 3137 3139 3141 3142 3142 3142 3141 3141 3142 3144 3145 3145 3145 3145 3145 3145